| time (UTC) | temp F | wind direction | speed MPH | gust MPH | rain 1hr in | rain 24hr in | rain mn in | humidity % | barometer mb |
| 20260508161538 | 42 | 35 | 6.0 | 11.0 | 0.00 | 1.00 | 0.00 | 95 | 1001.7 |
| 20260508160037 | 43 | 32 | 6.0 | 11.0 | 0.00 | 1.00 | 0.00 | 95 | 1001.7 |
| 20260508154537 | 43 | 4 | 2.0 | 7.0 | 0.00 | 1.00 | 0.00 | 95 | 1001.9 |
| 20260508153040 | 43 | 85 | 3.0 | 8.0 | 0.00 | 1.00 | 0.00 | 96 | 1001.9 |
| 20260508151542 | 43 | 360 | 2.0 | 7.0 | 0.00 | 1.00 | 0.00 | 96 | 1002.1 |
| 20260508150037 | 42 | 359 | 4.0 | 11.0 | 0.00 | 1.00 | 0.00 | 96 | 1002.1 |
| 20260508144539 | 44 | 312 | 4.0 | 10.0 | 0.00 | 1.00 | 0.00 | 95 | 1002.2 |
| 20260508143040 | 47 | 357 | 4.0 | 9.0 | 0.00 | 1.00 | 0.00 | 96 | 1002.3 |
| 20260508141607 | 46 | 34 | 2.0 | 7.0 | 0.00 | 1.00 | 0.00 | 97 | 1002.2 |
| 20260508140039 | 46 | 343 | 2.0 | 7.0 | 0.00 | 1.00 | 0.00 | 97 | 1002.7 |
| 20260508134552 | 46 | 51 | 2.0 | 6.0 | 0.00 | 1.00 | 0.00 | 98 | 1002.6 |
| 20260508133037 | 45 | 354 | 1.0 | 5.0 | 0.00 | 1.00 | 0.00 | 98 | 1002.5 |
| 20260508131537 | 44 | 316 | 3.0 | 9.0 | 0.00 | 1.00 | 0.00 | 97 | 1002.2 |
| 20260508130040 | 47 | 340 | 4.0 | 8.0 | 0.00 | 1.00 | 0.00 | 98 | 1001.9 |
| 20260508124544 | 46 | 355 | 2.0 | 7.0 | 0.00 | 1.00 | 0.00 | 99 | 1001.8 |
| 20260508123046 | 44 | 46 | 6.0 | 11.0 | 0.00 | 1.00 | 0.00 | 98 | 1002.0 |
| 20260508121537 | 46 | 62 | 4.0 | 7.0 | 0.00 | 1.00 | 0.00 | 99 | 1002.1 |
| 20260508120037 | 46 | 109 | 0.0 | 4.0 | 0.00 | 1.00 | 0.00 | 99 | 1002.1 |
| 20260508114540 | 46 | 10 | 1.0 | 4.0 | 0.00 | 1.00 | 0.00 | 99 | 1002.1 |
| 20260508113049 | 46 | 0 | 0.0 | 3.0 | 0.00 | 1.00 | 0.00 | 99 | 1002.3 |
| 20260508111538 | 44 | 0 | 0.0 | 3.0 | 0.00 | 1.00 | 0.00 | 99 | 1002.3 |
| 20260508110038 | 43 | 0 | 1.0 | 3.0 | 0.00 | 1.00 | 0.00 | 99 | 1002.7 |
| 20260508104539 | 42 | 0 | 0.0 | 0.0 | 0.00 | 1.00 | 0.00 | 99 | 1002.6 |
| 20260508103039 | 41 | 0 | 0.0 | 0.0 | 0.00 | 1.00 | 0.00 | 99 | 1002.6 |
| 20260508101540 | 41 | 0 | 0.0 | 0.0 | 0.00 | 1.00 | 0.00 | 99 | 1002.7 |
| 20260508100037 | 40 | 0 | 0.0 | 2.0 | 0.00 | 1.00 | 0.00 | 99 | 1002.4 |
| 20260508094537 | 40 | 21 | 2.0 | 4.0 | 0.00 | 1.00 | 0.00 | 99 | 1002.2 |
| 20260508093044 | 40 | 0 | 0.0 | 0.0 | 0.00 | 1.00 | 0.00 | 99 | 1002.3 |
| 20260508091547 | 40 | 0 | 0.0 | 0.0 | 0.00 | 1.00 | 0.00 | 99 | 1002.2 |
| 20260508090041 | 39 | 0 | 0.0 | 0.0 | 0.00 | 1.00 | 0.00 | 98 | 1002.0 |
| 20260508084538 | 40 | 0 | 0.0 | 0.0 | 0.00 | 1.00 | 0.00 | 98 | 1001.7 |
| 20260508083048 | 41 | 0 | 0.0 | 2.0 | 0.00 | 1.00 | 0.00 | 98 | 1001.6 |
| 20260508081537 | 41 | 0 | 0.0 | 2.0 | 0.00 | 1.00 | 0.00 | 98 | 1001.1 |
| 20260508080039 | 41 | 21 | 1.0 | 4.0 | 0.00 | 1.00 | 0.00 | 98 | 1001.4 |
| 20260508074548 | 42 | 21 | 2.0 | 4.0 | 0.00 | 1.00 | 0.00 | 98 | 1001.5 |
| 20260508073038 | 42 | 21 | 2.0 | 4.0 | 0.00 | 1.00 | 0.00 | 98 | 1001.7 |
| 20260508071538 | 42 | 21 | 2.0 | 4.0 | 0.00 | 1.00 | 0.00 | 98 | 1001.6 |
| 20260508070040 | 42 | 21 | 1.0 | 3.0 | 0.00 | 1.00 | 0.00 | 98 | 1001.8 |
| 20260508064541 | 42 | 0 | 0.0 | 0.0 | 0.00 | 1.00 | 0.00 | 98 | 1001.8 |
| 20260508063038 | 41 | 0 | 0.0 | 2.0 | 0.00 | 1.00 | 0.00 | 98 | 1001.7 |
| 20260508061538 | 41 | 21 | 0.0 | 3.0 | 0.00 | 1.00 | 0.00 | 98 | 1001.7 |
| 20260508060037 | 41 | 21 | 2.0 | 5.0 | 0.00 | 1.00 | 0.00 | 98 | 1001.7 |
| 20260508054539 | 42 | 21 | 4.0 | 6.0 | 0.00 | 1.00 | 0.00 | 98 | 1002.1 |
| 20260508053040 | 42 | 21 | 2.0 | 5.0 | 0.00 | 1.00 | 0.00 | 98 | 1002.4 |
| 20260508051538 | 42 | 21 | 2.0 | 4.0 | 0.00 | 1.00 | 0.00 | 98 | 1002.3 |
| 20260508050037 | 42 | 0 | 1.0 | 4.0 | 0.00 | 1.00 | 0.00 | 98 | 1002.2 |
| 20260508044537 | 41 | 21 | 1.0 | 5.0 | 0.00 | 1.00 | 0.00 | 98 | 1002.2 |
| 20260508043045 | 41 | 37 | 6.0 | 9.0 | 0.00 | 1.00 | 0.00 | 97 | 1002.1 |
| 20260508041538 | 42 | 352 | 4.0 | 9.0 | 0.00 | 1.00 | 0.00 | 97 | 1002.5 |
| 20260508040039 | 44 | 290 | 5.0 | 10.0 | 0.00 | 1.00 | 0.00 | 97 | 1002.3 |
| 20260508034537 | 46 | 303 | 2.0 | 6.0 | 0.00 | 1.00 | 0.00 | 98 | 1002.4 |
| 20260508033039 | 46 | 313 | 2.0 | 5.0 | 0.00 | 1.00 | 0.00 | 98 | 1002.4 |
| 20260508031537 | 46 | 0 | 0.0 | 0.0 | 0.00 | 1.00 | 0.00 | 98 | 1002.2 |
| 20260508030044 | 46 | 0 | 0.0 | 0.0 | 0.01 | 1.00 | 0.00 | 98 | 1002.0 |
| 20260508024539 | 45 | 0 | 0.0 | 0.0 | 0.01 | 1.00 | 1.00 | 98 | 1002.1 |
| 20260508023039 | 45 | 0 | 0.0 | 0.0 | 0.02 | 1.00 | 1.00 | 98 | 1002.0 |
| 20260508021545 | 46 | 0 | 0.0 | 0.0 | 0.03 | 1.00 | 1.00 | 97 | 1002.4 |
| 20260508020037 | 46 | 0 | 0.0 | 0.0 | 0.03 | 0.99 | 0.99 | 97 | 1002.4 |
| 20260508014537 | 46 | 0 | 0.0 | 0.0 | 0.05 | 0.99 | 0.99 | 97 | 1002.8 |
| 20260508013042 | 46 | 235 | 0.0 | 3.0 | 0.06 | 0.98 | 0.98 | 97 | 1002.7 |
| 20260508011538 | 45 | 0 | 0.0 | 0.0 | 0.07 | 0.97 | 0.97 | 97 | 1002.8 |
| 20260508010038 | 45 | 0 | 0.0 | 0.0 | 0.10 | 0.96 | 0.96 | 97 | 1002.6 |
| 20260508004540 | 45 | 0 | 0.0 | 1.0 | 0.13 | 0.94 | 0.94 | 97 | 1002.7 |
| 20260508003038 | 45 | 0 | 0.0 | 3.0 | 0.13 | 0.92 | 0.92 | 97 | 1002.7 |
| 20260508001539 | 45 | 241 | 0.0 | 3.0 | 0.14 | 0.90 | 0.90 | 96 | 1002.8 |
| 20260508000039 | 45 | 219 | 0.0 | 5.0 | 0.09 | 0.85 | 0.85 | 96 | 1002.8 |
| 20260507234538 | 45 | 0 | 2.0 | 14.0 | 0.05 | 0.81 | 0.81 | 96 | 1002.4 |
| 20260507233039 | 46 | 308 | 8.0 | 18.0 | 0.02 | 0.78 | 0.78 | 95 | 1002.1 |
| 20260507231543 | 48 | 267 | 8.0 | 21.0 | 0.00 | 0.76 | 0.76 | 95 | 1001.8 |
| 20260507230037 | 52 | 265 | 9.0 | 16.0 | 0.00 | 0.76 | 0.76 | 93 | 1001.6 |
| 20260507224537 | 53 | 210 | 4.0 | 8.0 | 0.00 | 0.76 | 0.76 | 94 | 1001.2 |
| 20260507223040 | 54 | 241 | 2.0 | 4.0 | 0.00 | 0.76 | 0.76 | 93 | 1001.1 |
| 20260507221538 | 55 | 0 | 1.0 | 9.0 | 0.00 | 0.76 | 0.76 | 93 | 1001.1 |
| 20260507220038 | 55 | 156 | 3.0 | 10.0 | 0.00 | 0.76 | 0.76 | 93 | 1000.9 |
| 20260507214552 | 55 | 157 | 1.0 | 5.0 | 0.00 | 0.76 | 0.76 | 93 | 1000.9 |
| 20260507213039 | 55 | 173 | 2.0 | 9.0 | 0.00 | 0.76 | 0.76 | 93 | 1000.8 |
| 20260507211537 | 55 | 102 | 5.0 | 10.0 | 0.00 | 0.76 | 0.76 | 94 | 1000.8 |
| 20260507210049 | 55 | 152 | 4.0 | 11.0 | 0.00 | 0.76 | 0.76 | 94 | 1000.8 |
| 20260507204539 | 54 | 189 | 7.0 | 12.0 | 0.02 | 0.76 | 0.76 | 94 | 1000.6 |
| 20260507203048 | 54 | 166 | 2.0 | 13.0 | 0.06 | 0.76 | 0.76 | 95 | 1000.8 |
| 20260507201543 | 54 | 119 | 7.0 | 16.0 | 0.09 | 0.76 | 0.76 | 95 | 1000.3 |
| 20260507200043 | 54 | 107 | 10.0 | 21.0 | 0.13 | 0.76 | 0.76 | 95 | 999.8 |
| 20260507194600 | 54 | 106 | 9.0 | 14.0 | 0.14 | 0.74 | 0.74 | 96 | 1001.0 |
| 20260507193038 | 54 | 87 | 5.0 | 14.0 | 0.13 | 0.70 | 0.70 | 96 | 1001.7 |
| 20260507191543 | 54 | 174 | 2.0 | 10.0 | 0.15 | 0.66 | 0.66 | 96 | 1002.9 |
| 20260507190038 | 54 | 129 | 6.0 | 12.0 | 0.20 | 0.63 | 0.63 | 96 | 1002.6 |
| 20260507184540 | 54 | 152 | 7.0 | 15.0 | 0.27 | 0.60 | 0.60 | 96 | 1003.1 |
| 20260507183038 | 54 | 147 | 5.0 | 13.0 | 0.41 | 0.56 | 0.56 | 96 | 1003.1 |
| 20260507181542 | 53 | 162 | 5.0 | 12.0 | 0.47 | 0.51 | 0.51 | 96 | 1003.5 |
| 20260507180041 | 53 | 6 | 4.0 | 14.0 | 0.41 | 0.43 | 0.43 | 95 | 1003.7 |
| 20260507174544 | 53 | 194 | 5.0 | 17.0 | 0.31 | 0.32 | 0.32 | 94 | 1003.8 |
| 20260507173039 | 54 | 221 | 8.0 | 22.0 | 0.14 | 0.14 | 0.14 | 93 | 1003.4 |
| 20260507171545 | 55 | 250 | 8.0 | 27.0 | 0.04 | 0.04 | 0.04 | 92 | 1002.9 |
| 20260507170040 | 56 | 188 | 8.0 | 21.0 | 0.02 | 0.02 | 0.02 | 90 | 1002.8 |
| 20260507164542 | 57 | 179 | 8.0 | 22.0 | 0.01 | 0.01 | 0.01 | 88 | 1002.9 |
| 20260507163039 | 60 | 163 | 8.0 | 26.0 | 0.00 | 0.00 | 0.00 | 82 | 1003.2 |